OpenBCM V1.13 (Linux)

Packet Radio Mailbox

DB0FHN

[JN59NK Nuernberg]

 Login: GUEST





  
UR7IWZ > KEPS     21.02.03 14:13l 151 Lines 3945 Bytes #999 (0) @ AMSAT
BID : ORB03051.O
Read: DB0FHN GUEST
Subj: Orbital Elements  03051.OSCAR
Path: DB0FHN<DB0ZWI<DB0HST<ON0DXC<WA7V<RZ6HXA<UR7IWZ
Sent: 030221/0820Z @:UR7IWZ.DON.UKR.EU #:64991 XFBB7.04 Bid:ORB03051.O
From: UR7IWZ@UR7IWZ.DON.UKR.EU
To  : KEPS@AMSAT


HR AMSAT ORBITAL ELEMENTS FOR OSCAR SATELLITES
FROM WA5QGD FORT WORTH,TX February 20, 2003
SEND SUBSCRIBE/UNSUBSCRIBE TO majordomo@amsat.org ONLY
BID: ORB03051.O
TO ALL RADIO AMATEURS BT

Satellite: AO-07
Catalog number: 07530
Epoch time:      03049.69169250
Element set:    0153
Inclination:      101.7618 deg
RA of node:       097.4779 deg
Eccentricity:    0.0012275
Arg of perigee:   077.6699 deg
Mean anomaly:     282.5749 deg
Mean motion:   12.53564392 rev/day
Decay rate:       -2.9e-07 rev/day^2
Epoch rev:           29320
Checksum:              329

Satellite: AO-10
Catalog number: 14129
Epoch time:      03050.37921519
Element set:     917
Inclination:       25.9543 deg
RA of node:       164.1610 deg
Eccentricity:    0.6026559
Arg of perigee:   329.0466 deg
Mean anomaly:       6.3565 deg
Mean motion:    2.05869657 rev/day
Decay rate:      -3.03e-06 rev/day^2
Epoch rev:           14805
Checksum:              298

Satellite: UO-11
Catalog number: 14781
Epoch time:      03051.23606607
Element set:      75
Inclination:       98.1183 deg
RA of node:        25.1713 deg
Eccentricity:    0.0008646
Arg of perigee:   199.7462 deg
Mean anomaly:     160.3414 deg
Mean motion:   14.78008182 rev/day
Decay rate:      1.815e-05 rev/day^2
Epoch rev:            1648
Checksum:              286

Satellite: RS-10/11
Catalog number: 18129
Epoch time:      03049.80228056
Element set:    0214
Inclination:      082.9272 deg
RA of node:       146.3876 deg
Eccentricity:    0.0010262
Arg of perigee:   223.1155 deg
Mean anomaly:     136.9196 deg
Mean motion:   13.72700924 rev/day
Decay rate:        5.4e-07 rev/day^2
Epoch rev:           78454
Checksum:              291

Satellite: FO-20
Catalog number: 20480
Epoch time:      03049.93556543
Element set:    0469
Inclination:      099.0470 deg
RA of node:       012.6088 deg
Eccentricity:    0.0540649
Arg of perigee:   003.0521 deg
Mean anomaly:     357.3664 deg
Mean motion:   12.83330411 rev/day
Decay rate:        1.1e-07 rev/day^2
Epoch rev:           61056
Checksum:              275

Satellite: RS-12/13
Catalog number: 21089
Epoch time:      03049.90466873
Element set:    0499
Inclination:      082.9228 deg
RA of node:       181.1283 deg
Eccentricity:    0.0027875
Arg of perigee:   287.2823 deg
Mean anomaly:     072.5281 deg
Mean motion:   13.74404516 rev/day
Decay rate:        7.8e-07 rev/day^2
Epoch rev:           60383
Checksum:              330

Satellite: RS-15
Catalog number: 23439
Epoch time:      03049.29359592
Element set:     682
Inclination:       64.8151 deg
RA of node:        41.9255 deg
Eccentricity:    0.0146804
Arg of perigee:   115.2566 deg
Mean anomaly:     246.3616 deg
Mean motion:   11.27547528 rev/day
Decay rate:       -4.2e-07 rev/day^2
Epoch rev:           33556
Checksum:              313

Satellite: FO-29
Catalog number: 24278
Epoch time:      03049.98530178
Element set:     561
Inclination:       98.5351 deg
RA of node:       201.1475 deg
Eccentricity:    0.0350170
Arg of perigee:   215.3253 deg
Mean anomaly:     142.4226 deg
Mean motion:   13.52872814 rev/day
Decay rate:        2.7e-07 rev/day^2
Epoch rev:           32136
Checksum:              288

Satellite: SO-33
Catalog number: 25509
Epoch time:      03051.60944406
Element set:     784
Inclination:       31.4311 deg
RA of node:       141.6443 deg
Eccentricity:    0.0357954
Arg of perigee:   320.5477 deg
Mean anomaly:      36.9584 deg
Mean motion:   14.27438864 rev/day
Decay rate:       8.15e-06 rev/day^2
Epoch rev:           22560
Checksum:              306

Satellite: AO-40
Catalog number: 26609
Epoch time:      03046.24037137
Element set:     311
Inclination:        8.0800 deg
RA of node:        64.6767 deg
Eccentricity:    0.7942000
Arg of perigee:   144.0329 deg
Mean anomaly:     312.8612 deg
Mean motion:    1.25596569 rev/day
Decay rate:      -1.18e-06 rev/day^2
Epoch rev:            1054
Checksum:              271



Read previous mail | Read next mail


 19.06.2026 09:28:33lGo back Go up